SCP
0 0 0 0 0 0 0 0 0 0 0 0 0 0 0 0 0 0 0 0 0 0
0 0 0 0 0 0 0 0 0 0 0 0 0 0 0 0 0 0 0 0 0 0
0 0 0 0 0 0 0 0 0 0 0 0 0 0 0 0 0 0 0 0 0 0
0 0 0 0 0 0 0 0 0 0 0 0 0 0 0 0 0 0 0 0 0 0
0 0 0 0 0 0 0 0 0 0 0 0 0 0 0 0 0 0 0 0 0 0
0 0 0 0 0 0 0 0 0 0 0 0 0 0 0 0 0 0 0 0 0 0
0 0 0 0 0 0 0 0 0 0 0 0 0 0 0 0 0 0 0 0 0 0
0 0 0 0 0 0 0 0 0 0 0 0 0 0 0 0 0 0 0 0 0 0
0 0 0 0 0 0 0 0 0 0 0 0 0 0 0 0 0 0 0 0 0 0
0 0 0 0 0 0 0 0 0 0 0 0 0 0 0 0 0 0 0 0 0 0
0 0 0 0 0 0 0 0 0 0 0 0 0 0 0 0 0 0 0 0 0 0
0 0 0 0 0 0 0 0 0 0 0 0 0 0 0 0 0 0 0 0 0 0
0 0 0 0 0 0 0 0 0 0 0 0 0 0 0 0 0 0 0 0 0 0
0 0 0 0 0 0 0 0 0 0 0 0 0 0 0 0 0 0 0 0 0 0
Wind_Speed_500mb
95 95 94 93 93 91 89 85 78 73 70 68 64 58 56 49 53 58 61 62 61 60
95 96 96 94 95 95 93 90 86 79 74 70 73 70 67 67 62 61 53 50 55 60
96 97 96 95 97 97 95 92 90 85 78 76 76 79 79 80 75 73 62 56 50 54
92 93 95 94 94 95 94 91 90 89 83 80 78 79 88 90 87 81 75 71 63 54
86 89 91 91 90 89 91 89 87 89 89 86 83 79 82 91 95 92 86 84 72 64
81 85 87 89 88 89 87 88 85 88 88 87 87 83 82 83 95 98 93 89 72 67
71 76 80 84 85 84 85 85 85 86 87 88 84 84 80 83 81 97 98 89 85 76
48 60 67 69 72 71 70 75 77 78 79 81 83 87 85 79 86 88 96 103 81 71
30 37 45 51 54 55 61 66 71 75 76 77 77 78 78 76 85 94 93 105 85 80
20 21 26 35 45 51 56 59 60 64 68 70 71 74 76 85 75 84 98 87 96 81
22 23 24 26 30 34 39 44 49 54 57 61 63 69 69 69 66 83 89 90 81 72
20 20 22 24 27 31 34 38 41 45 48 52 53 60 65 65 62 66 75 73 71 63
17 20 21 23 23 24 19 20 23 25 30 35 40 47 52 59 66 62 66 71 67 63
15 17 19 20 20 17 20 23 24 28 30 35 37 46 50 52 54 57 61 62 54 42
Wind_Direction_500mb
243 244 246 248 249 250 253 257 257 253 251 246 242 242 240 241 246 251 258 260 264 261
248 247 249 250 251 253 255 257 259 257 255 252 244 243 242 238 251 256 249 254 263 264
251 252 252 252 252 255 257 258 260 261 258 256 252 248 246 245 243 243 245 247 262 262
252 254 256 255 256 257 258 261 264 265 263 259 257 254 249 249 249 246 247 244 247 254
253 254 254 257 258 259 258 259 261 256 256 255 256 258 254 251 249 248 248 245 241 245
249 248 249 252 256 257 258 257 252 251 254 255 255 254 257 253 249 248 248 248 243 245
249 250 251 253 255 257 256 254 254 254 255 256 256 256 258 256 256 251 247 246 242 245
252 250 250 251 252 255 256 256 257 256 257 257 257 257 257 258 258 258 246 246 243 240
258 254 252 252 251 248 253 254 255 256 258 257 258 257 261 260 262 249 245 242 235 238
266 258 249 247 248 251 249 253 256 258 259 261 261 259 259 257 258 253 246 246 238 233
255 256 256 257 261 263 262 259 254 255 258 261 263 265 265 267 270 263 246 239 234 231
253 257 264 268 270 269 270 269 268 264 263 265 266 266 268 265 264 261 251 241 239 232
246 249 255 261 267 276 279 278 285 281 276 271 268 267 266 265 266 251 246 243 235 226
247 251 259 266 273 274 272 272 274 278 278 280 278 272 263 266 262 254 244 236 234 223
Wind_Speed_850mb
95 95 94 93 93 91 89 85 78 73 70 68 64 58 56 49 53 58 61 62 61 60
95 96 96 94 95 95 93 90 86 79 74 70 73 70 67 67 62 61 53 50 55 60
96 97 96 95 97 97 95 92 90 85 78 76 76 79 79 80 75 73 62 56 50 54
92 93 95 94 94 95 94 91 90 89 83 80 78 79 88 90 87 81 75 71 63 54
86 89 91 91 90 89 91 89 87 89 89 86 83 79 82 91 95 92 86 84 72 64
81 85 87 89 88 89 87 88 85 88 88 87 87 83 82 83 95 98 93 89 72 67
71 76 80 84 85 84 85 85 85 86 87 88 84 84 80 83 81 97 98 89 85 76
48 60 67 69 72 71 70 75 77 78 79 81 83 87 85 79 86 88 96 103 81 71
30 37 45 51 54 55 61 66 71 75 76 77 77 78 78 76 85 94 93 105 85 80
20 21 26 35 45 51 56 59 60 64 68 70 71 74 76 85 75 84 98 87 96 81
22 23 24 26 30 34 39 44 49 54 57 61 63 69 69 69 66 83 89 90 81 72
20 20 22 24 27 31 34 38 41 45 48 52 53 60 65 65 62 66 75 73 71 63
17 20 21 23 23 24 19 20 23 25 30 35 40 47 52 59 66 62 66 71 67 63
15 17 19 20 20 17 20 23 24 28 30 35 37 46 50 52 54 57 61 62 54 42
Wind_Direction_850mb
243 244 246 248 249 250 253 257 257 253 251 246 242 242 240 241 246 251 258 260 264 261
248 247 249 250 251 253 255 257 259 257 255 252 244 243 242 238 251 256 249 254 263 264
251 252 252 252 252 255 257 258 260 261 258 256 252 248 246 245 243 243 245 247 262 262
252 254 256 255 256 257 258 261 264 265 263 259 257 254 249 249 249 246 247 244 247 254
253 254 254 257 258 259 258 259 261 256 256 255 256 258 254 251 249 248 248 245 241 245
249 248 249 252 256 257 258 257 252 251 254 255 255 254 257 253 249 248 248 248 243 245
249 250 251 253 255 257 256 254 254 254 255 256 256 256 258 256 256 251 247 246 242 245
252 250 250 251 252 255 256 256 257 256 257 257 257 257 257 258 258 258 246 246 243 240
258 254 252 252 251 248 253 254 255 256 258 257 258 257 261 260 262 249 245 242 235 238
266 258 249 247 248 251 249 253 256 258 259 261 261 259 259 257 258 253 246 246 238 233
255 256 256 257 261 263 262 259 254 255 258 261 263 265 265 267 270 263 246 239 234 231
253 257 264 268 270 269 270 269 268 264 263 265 266 266 268 265 264 261 251 241 239 232
246 249 255 261 267 276 279 278 285 281 276 271 268 267 266 265 266 251 246 243 235 226
247 251 259 266 273 274 272 272 274 278 278 280 278 272 263 266 262 254 244 236 234 223